FW5398 Weather Reports


time (UTC)temp
C
wind
direction
speed
KPH
gust
KPH
rain 1hr
cm
rain 24hr
cm
rain mn
cm
humidity
%
barometer
mb
20260508001534 8 203 3.2 8.0 0.25 1.88 1.88 87 1002.4
20260508000031 8 186 6.4 17.7 0.20 1.83 1.83 86 1002.3
20260507234626 9 255 9.7 19.3 0.13 1.75 1.75 86 1002.1
20260507233024 10 256 8.0 12.9 0.03 1.65 1.65 86 1001.7
20260507231522 10 176 8.0 22.5 0.00 1.63 1.63 86 1001.7
20260507230021 10 180 14.5 25.7 0.00 1.63 1.63 84 1001.8
20260507224523 12 151 17.7 25.7 0.00 1.63 1.63 84 1001.0
20260507223017 12 177 19.3 30.6 0.00 1.63 1.63 85 1000.5
20260507221522 12 131 20.9 32.2 0.00 1.63 1.63 85 1000.5
20260507220019 11 137 19.3 32.2 0.00 1.63 1.63 85 1000.7
20260507214514 11 128 17.7 27.4 0.00 1.63 1.63 85 1000.7
20260507213026 11 131 19.3 29.0 0.00 1.63 1.63 85 1000.7
20260507211513 11 123 25.7 37.0 0.00 1.63 1.63 85 1000.6
20260507210028 11 105 22.5 33.8 0.00 1.63 1.63 85 1000.6
20260507204510 11 135 22.5 38.6 0.03 1.63 1.63 86 1000.7
20260507203017 11 151 20.9 32.2 0.15 1.63 1.63 86 1001.0
20260507201514 12 103 20.9 32.2 0.30 1.63 1.63 86 1000.3
20260507200016 12 112 19.3 37.0 0.38 1.63 1.63 86 1000.3
20260507194506 12 114 20.9 32.2 0.43 1.60 1.60 86 1000.6
20260507193132 12 135 20.9 33.8 0.43 1.45 1.45 86 1001.2
20260507191601 12 131 25.7 41.8 0.38 1.30 1.30 86 1002.4
20260507190056 12 137 20.9 33.8 0.48 1.22 1.22 86 1002.6
20260507184555 12 122 20.9 37.0 0.66 1.17 1.17 86 1002.3
20260507183100 12 158 20.9 30.6 0.84 1.04 1.04 86 1003.1
20260507181551 12 137 20.9 41.8 0.86 0.91 0.91 86 1002.9
20260507180049 12 207 17.7 32.2 0.71 0.71 0.71 85 1003.6
20260507174547 12 187 16.1 30.6 0.48 0.51 0.51 85 1003.9
20260507173105 12 199 14.5 37.0 0.15 0.18 0.18 84 1003.7
20260507171545 13 141 14.5 33.8 0.03 0.05 0.05 84 1003.0
20260507170047 13 120 19.3 33.8 0.00 0.03 0.03 83 1002.6
20260507164541 14 176 29.0 51.5 0.00 0.03 0.03 82 1002.5
20260507163039 15 168 16.1 48.3 0.00 0.03 0.03 81 1002.9
20260507161539 15 154 29.0 54.7 0.00 0.03 0.03 81 1003.2
20260507160056 16 125 19.3 43.5 0.00 0.03 0.03 80 1004.4
20260507154535 16 135 24.1 48.3 0.00 0.03 0.03 80 1004.1
20260507153034 16 184 19.3 46.7 0.00 0.03 0.03 80 1004.5
20260507151529 15 138 17.7 35.4 0.00 0.03 0.03 80 1004.7
20260507150029 15 181 17.7 43.5 0.00 0.03 0.03 80 1005.1
20260507144541 15 154 17.7 41.8 0.00 0.03 0.03 80 1005.4
20260507143023 15 122 20.9 49.9 0.00 0.03 0.03 80 1005.5
20260507141525 15 183 32.2 49.9 0.00 0.03 0.03 80 1006.1
20260507140019 15 189 29.0 57.9 0.00 0.03 0.03 80 1006.2
20260507134520 15 245 17.7 37.0 0.00 0.03 0.03 80 1006.3
20260507133015 15 183 16.1 43.5 0.00 0.03 0.03 81 1006.4
20260507131513 14 174 19.3 48.3 0.00 0.03 0.03 81 1006.5
20260507130025 15 157 24.1 45.1 0.00 0.03 0.03 80 1007.1
20260507124515 15 234 20.9 57.9 0.00 0.03 0.03 81 1006.9
20260507123010 14 131 12.9 37.0 0.00 0.03 0.03 82 1007.5
20260507121509 14 130 14.5 48.3 0.00 0.03 0.03 82 1006.9
20260507120011 13 166 22.5 45.1 0.03 0.03 0.03 83 1007.1
20260507114505 13 115 14.5 29.0 0.03 0.03 0.03 83 1007.5
20260507113006 13 142 19.3 48.3 0.03 0.03 0.03 83 1007.6
20260507111507 14 131 19.3 56.3 0.00 0.00 0.00 82 1007.9
20260507110005 14 149 19.3 48.3 0.00 0.00 0.00 82 1008.4
20260507104502 13 141 19.3 48.3 0.00 0.00 0.00 82 1008.0
20260507103100 13 140 22.5 48.3 0.00 0.00 0.00 82 1008.2
20260507101629 13 147 16.1 38.6 0.00 0.00 0.00 82 1008.4
20260507100057 13 189 25.7 54.7 0.00 0.00 0.00 82 1008.6
20260507094557 13 183 22.5 45.1 0.00 0.00 0.00 83 1008.7
20260507093058 13 151 27.4 43.5 0.00 0.00 0.00 83 1009.1
20260507091551 13 173 17.7 41.8 0.00 0.00 0.00 83 1009.6
20260507090052 13 133 22.5 41.8 0.00 0.00 0.00 83 1009.9
20260507084548 12 147 17.7 45.1 0.00 0.00 0.00 82 1009.9
20260507083047 13 118 25.7 40.2 0.00 0.00 0.00 82 1010.2
20260507081543 13 176 11.3 27.4 0.00 0.00 0.00 81 1010.4
20260507080041 13 158 22.5 43.5 0.00 0.00 0.00 80 1009.5
20260507074537 13 132 24.1 43.5 0.00 0.00 0.00 81 1009.9
20260507073036 13 141 22.5 38.6 0.00 0.00 0.00 80 1010.5
20260507071534 13 124 19.3 49.9 0.00 0.00 0.00 80 1010.7
20260507070033 14 126 24.1 37.0 0.00 0.00 0.00 79 1011.2
20260507064532 14 149 27.4 46.7 0.00 0.00 0.00 78 1010.8
20260507063031 14 173 25.7 43.5 0.00 0.00 0.00 79 1011.1
20260507061527 14 126 22.5 37.0 0.00 0.00 0.00 89 1011.4
20260507060022 14 127 17.7 35.4 0.00 0.00 0.00 100 1011.5
20260507054521 14 120 27.4 51.5 0.00 0.00 0.00 100 1011.5
20260507053018 14 149 27.4 38.6 0.00 0.00 0.00 100 1011.9
20260507051515 13 129 20.9 35.4 0.00 0.00 0.00 100 1012.5
20260507050014 13 128 20.9 40.2 0.00 0.00 0.00 100 1012.9
20260507044512 13 152 25.7 46.7 0.00 0.00 0.00 100 1013.2
20260507043010 13 164 22.5 40.2 0.00 0.00 0.00 100 1013.4
20260507041518 13 135 19.3 40.2 0.00 0.00 0.00 100 1013.9
20260507040005 13 143 27.4 45.1 0.00 0.00 0.00 100 1014.3
20260507034501 14 118 22.5 41.8 0.00 0.00 0.00 100 1014.6
20260507033058 14 143 19.3 40.2 0.00 0.00 0.00 100 1014.9
20260507031558 14 158 22.5 32.2 0.00 0.00 0.00 100 1015.3
20260507030058 14 147 16.1 40.2 0.00 0.00 0.00 100 1015.6
20260507024551 14 193 17.7 43.5 0.00 0.00 0.00 100 1015.8
20260507023104 14 149 20.9 35.4 0.00 0.00 0.00 100 1015.9
20260507021552 14 169 24.1 48.3 0.00 0.00 0.00 100 1015.9
20260507020049 14 148 25.7 46.7 0.00 0.00 0.00 100 1016.1
20260507014558 13 180 20.9 35.4 0.00 0.00 0.00 100 1016.1
20260507013103 14 139 19.3 37.0 0.00 0.00 0.00 100 1016.2
20260507011543 14 136 24.1 38.6 0.00 0.00 0.00 100 1016.1
20260507010042 14 159 25.7 48.3 0.00 0.00 0.00 100 1016.3
20260507004540 14 115 22.5 35.4 0.00 0.00 0.00 100 1016.4
20260507003040 15 160 24.1 38.6 0.00 0.00 0.00 100 1016.4